Wind_Speed
15 15 14 14 14 14 14 14 15 15 16 18 19 19 18 19 19 20 20 19 19 17 16 17 17 15 12 9 9 10 10 11 11 11 11 11 12 12 11 11 10 9 12 19 21 21 23 25 25 23 22 23 24 26 28 27 24 23 25 29 33 36 37
15 14 15 14 14 14 14 15 15 16 17 19 20 18 18 18 19 20 20 20 20 19 18 17 16 16 14 12 11 11 11 12 12 13 13 13 13 14 13 12 12 12 13 17 22 23 24 25 24 23 21 20 23 25 25 24 23 24 28 31 34 37 38
14 14 14 14 14 14 14 15 16 17 18 19 18 17 18 19 19 19 20 20 20 19 18 17 16 15 14 14 13 13 13 14 14 15 16 16 15 16 16 14 14 15 14 17 22 23 23 23 21 18 16 17 21 22 21 23 26 27 30 33 35 37 38
14 14 14 13 13 14 14 15 16 17 18 18 17 17 18 19 20 20 20 21 21 20 19 18 18 17 16 16 16 17 16 16 17 18 18 19 18 17 18 17 17 17 18 18 20 20 21 20 17 15 17 19 21 21 22 25 28 30 31 32 33 34 36
13 13 14 14 14 14 14 15 16 18 18 17 17 18 20 21 22 22 23 23 24 23 21 21 22 22 21 21 21 22 22 22 22 22 22 22 22 20 20 20 19 20 21 20 20 21 22 22 22 22 21 19 19 21 24 27 29 30 30 31 33 33 34
14 14 14 14 15 15 16 17 18 19 19 19 20 20 21 22 23 24 25 26 25 24 24 24 25 26 26 26 26 26 26 26 25 25 25 24 24 23 22 21 20 21 22 22 22 22 23 23 23 20 18 16 17 20 23 26 28 30 29 30 33 34 35
15 15 15 15 16 16 17 18 20 21 21 21 21 22 23 24 24 25 25 24 23 22 22 23 24 25 26 26 26 26 25 24 24 24 24 24 23 22 22 22 21 22 22 22 21 21 22 22 19 15 14 16 17 19 21 22 24 27 30 31 31 33 35
15 15 16 16 17 17 19 20 21 22 21 21 22 23 24 24 24 24 23 23 23 22 22 22 22 22 23 23 22 21 21 21 22 23 23 22 21 21 22 22 22 22 22 21 20 20 20 20 18 15 15 17 18 19 19 18 19 23 28 30 30 31 31
16 16 16 17 18 19 20 21 22 22 21 22 23 24 24 23 22 22 22 23 23 21 20 20 20 21 22 22 22 22 22 23 23 23 23 20 20 21 21 22 22 22 21 19 17 16 15 15 15 15 16 16 16 15 16 18 19 22 25 28 30 31 26
16 16 17 18 19 20 22 22 23 22 21 21 21 22 22 21 20 20 21 20 20 21 22 22 23 23 23 24 24 24 23 24 23 23 23 23 22 23 23 23 22 20 17 15 15 15 15 13 14 17 16 14 15 15 17 19 19 20 24 25 26 28 24
17 17 19 20 21 22 23 23 23 22 20 19 19 20 20 20 20 21 21 21 22 24 25 24 24 23 23 23 23 22 23 24 24 23 22 22 22 22 22 21 20 17 15 15 15 16 16 14 15 17 16 15 17 17 17 18 17 18 21 19 15 16 20
18 19 20 21 23 23 23 23 22 21 19 19 19 19 20 21 22 22 21 21 22 22 21 21 20 20 20 20 21 21 21 21 21 20 20 21 21 20 19 18 17 15 15 16 16 17 17 17 17 17 16 16 17 17 16 17 17 18 19 17 13 14 19
18 20 22 22 22 22 22 22 22 19 18 19 19 19 20 21 22 22 20 19 18 18 18 19 20 21 22 22 21 21 20 20 21 22 22 21 20 20 19 18 17 17 16 16 15 16 17 17 17 17 17 17 17 17 16 16 17 19 18 18 17 19 25
20 21 22 21 21 21 21 22 22 19 18 20 21 21 21 22 21 19 17 16 17 19 21 22 23 24 25 24 23 23 24 24 24 24 22 21 21 21 20 19 18 18 17 16 15 16 17 17 17 17 18 17 16 16 16 16 18 19 19 20 22 24 29
21 21 21 20 20 20 21 22 21 20 20 21 21 21 21 21 20 18 18 19 21 22 24 24 24 25 24 23 21 20 20 20 21 21 21 21 21 21 20 19 18 17 16 16 17 19 19 17 15 15 15 14 15 16 16 15 17 18 19 23 26 27 29
20 20 20 20 19 20 22 23 22 20 20 21 21 20 20 20 20 19 20 22 22 22 22 22 22 24 23 21 18 16 15 16 16 17 19 19 20 20 20 19 18 17 16 16 16 17 16 14 12 11 10 8 8 11 13 13 16 19 21 22 24 24 25
19 19 20 19 19 20 22 23 23 21 21 21 20 19 20 20 19 19 20 21 21 21 21 21 21 21 20 18 16 15 15 15 15 16 17 20 20 21 22 21 20 19 18 17 15 12 10 9 9 10 9 6 5 9 13 15 18 21 20 18 16 15 19
19 20 20 19 18 19 21 23 23 22 21 20 20 19 20 20 20 20 20 20 21 21 20 20 19 17 16 16 14 13 14 14 14 14 15 19 21 23 23 22 20 18 18 19 19 17 14 14 13 13 14 14 15 17 19 19 19 19 18 17 14 13 17
20 20 19 18 18 19 21 23 23 20 20 20 20 20 20 21 21 20 20 20 20 19 17 17 17 16 14 13 11 11 13 12 12 12 13 14 17 22 24 22 18 17 17 19 20 21 20 19 18 17 18 19 20 22 22 21 19 18 17 17 17 16 15
20 20 19 18 19 20 20 21 21 19 18 19 19 18 18 19 19 18 18 19 19 17 16 15 15 14 13 12 11 11 12 13 13 12 10 13 14 15 19 19 16 16 16 17 18 19 19 18 18 18 18 19 20 21 21 21 20 19 17 17 18 17 14
20 20 20 20 20 20 20 20 20 18 16 17 18 17 16 17 18 18 19 19 18 16 14 12 11 11 12 13 12 10 12 14 12 10 11 15 16 12 13 13 13 13 13 13 14 14 15 15 16 16 17 19 20 20 20 20 19 19 18 16 16 16 16
20 20 22 22 20 20 20 19 18 18 16 15 16 17 16 17 17 18 18 18 17 15 13 11 10 10 10 10 10 11 13 12 9 10 14 14 10 7 9 10 10 10 10 11 11 11 13 14 15 16 18 19 20 20 20 20 19 17 16 14 14 13 14
21 21 23 23 21 20 20 19 18 17 15 15 15 16 16 16 17 17 17 17 17 15 13 11 10 10 10 9 9 10 9 8 10 13 12 8 6 8 8 8 7 8 8 9 10 11 13 14 16 17 19 19 19 19 19 18 17 15 14 12 11 10 10
21 21 21 22 22 22 21 20 19 17 15 15 15 15 16 16 14 13 12 13 14 13 11 10 9 9 9 8 8 8 10 12 16 16 12 10 13 12 9 7 8 8 9 10 11 13 15 17 17 18 18 18 18 18 17 17 15 14 14 13 12 10 10
21 21 21 21 23 23 22 21 20 19 16 15 14 14 15 14 10 7 8 10 10 9 8 8 8 8 9 11 13 14 15 17 17 15 14 15 15 13 11 11 11 11 12 13 14 16 18 18 18 17 16 16 16 16 15 14 14 14 14 14 13 12 11
21 20 20 21 22 23 23 22 21 21 19 17 15 13 13 13 10 8 8 9 9 9 10 11 12 12 13 15 16 16 15 15 14 13 14 14 14 14 14 14 14 14 15 16 17 18 18 17 16 15 15 15 15 14 13 12 13 13 12 12 12 12 12
21 20 20 21 22 22 23 23 22 22 20 18 17 15 14 14 13 12 12 12 12 13 13 13 13 13 13 13 12 11 12 12 12 12 12 12 13 14 14 14 15 15 15 16 17 16 15 15 14 13 13 12 11 11 10 10 11 11 9 9 10 12 12
22 21 21 21 21 21 22 22 22 20 18 17 17 17 16 15 15 15 17 16 15 14 14 13 12 12 11 11 11 10 11 11 12 12 11 11 12 12 12 13 13 13 13 14 13 13 13 12 12 11 10 8 8 8 7 7 7 8 8 7 8 9 10
23 22 21 21 21 20 21 22 22 20 18 17 15 14 15 14 14 16 18 18 18 17 16 15 14 13 13 12 11 11 11 12 12 13 13 13 12 12 12 12 11 12 12 11 11 11 11 10 9 9 7 7 8 8 7 6 6 6 7 7 7 8 8
22 21 19 19 21 21 21 23 22 19 18 17 16 14 15 15 16 18 19 19 20 20 18 17 16 16 16 14 13 12 12 12 12 13 14 14 13 13 13 12 11 11 10 10 10 10 9 9 8 8 7 8 9 8 7 6 6 6 6 6 6 7 7
20 18 17 18 20 20 20 20 19 17 17 18 16 16 17 18 19 19 20 22 23 22 21 21 20 19 18 16 14 13 13 12 12 13 14 14 13 13 13 13 12 10 9 9 9 9 9 9 8 8 8 9 8 8 7 6 6 6 6 5 5 5 5
17 17 17 17 18 19 19 17 16 16 18 18 18 19 19 20 20 20 21 23 24 24 23 23 22 21 19 17 15 14 13 12 12 13 13 13 13 14 14 13 12 10 9 9 9 9 9 9 9 9 9 8 7 7 6 6 6 5 5 4 4 4 4
19 18 18 17 17 17 18 17 16 16 17 18 19 20 20 19 20 19 18 18 20 22 22 22 22 22 20 18 16 15 13 13 13 13 13 13 14 14 14 12 11 10 9 9 9 9 9 9 10 10 9 7 6 6 6 6 6 5 5 5 4 4 4
21 20 20 20 19 18 17 17 16 16 16 16 16 14 13 12 12 13 12 13 15 18 20 20 22 22 21 18 17 16 14 14 14 14 13 14 14 14 13 12 11 10 10 10 10 10 10 10 10 9 8 7 6 6 6 6 6 6 5 4 4 3 4
20 20 19 20 20 19 18 16 15 15 15 15 14 12 9 7 8 10 11 12 13 15 17 18 20 21 20 19 18 16 15 15 15 14 14 14 14 13 13 13 12 11 10 10 11 11 10 10 9 9 8 7 7 6 7 7 5 4 2 2 3 3 4
22 21 20 20 21 19 17 15 15 14 14 14 14 13 12 11 11 13 14 15 15 16 17 18 19 20 20 19 18 16 15 15 15 15 14 14 13 13 13 13 13 12 11 11 12 11 11 10 9 8 8 7 7 6 6 5 3 2 1 2 3 4 4
Wind_Direction
277 279 280 281 282 285 290 293 296 299 304 311 317 316 311 310 311 312 314 317 318 319 320 320 317 310 301 287 274 266 258 257 259 265 272 281 293 300 306 307 294 280 288 295 297 298 299 299 298 295 291 292 300 308 314 317 319 319 317 315 317 318 318
274 274 274 276 277 281 285 289 294 299 304 312 316 314 306 303 304 305 307 310 313 316 316 314 312 307 302 295 289 285 283 282 282 284 287 291 296 300 304 306 298 287 287 294 298 299 298 297 294 289 288 293 302 309 312 314 315 315 313 311 314 316 316
268 269 271 272 274 279 284 289 294 299 305 310 312 306 298 296 297 299 301 303 306 309 310 307 303 302 300 298 296 293 292 293 295 297 299 300 301 301 302 303 298 290 286 291 295 298 297 295 291 287 291 299 303 305 307 308 311 312 311 311 313 314 314
264 265 266 268 272 277 283 288 294 299 304 307 305 298 292 291 293 295 298 299 299 300 301 297 295 294 295 295 296 295 295 297 299 301 302 300 299 298 297 298 296 290 287 286 289 292 292 291 290 290 295 299 300 301 304 309 311 311 312 312 312 313 315
260 261 262 266 272 278 283 289 294 299 303 304 299 293 290 291 293 295 297 298 297 295 292 289 290 292 294 295 294 294 295 296 298 299 299 298 296 296 295 294 294 293 289 281 279 284 286 284 284 285 287 291 298 304 307 310 311 310 313 316 315 315 317
257 258 262 267 273 278 285 290 295 299 302 301 296 292 292 292 294 296 297 298 296 292 287 285 288 291 294 295 294 294 295 296 297 297 297 296 296 296 294 291 291 292 288 279 274 278 281 282 281 279 281 288 299 307 311 312 312 311 313 318 321 320 320
257 259 264 269 275 281 288 293 297 299 301 300 296 294 293 293 295 296 298 299 297 292 289 287 289 292 294 294 293 294 295 296 297 298 297 295 295 295 291 288 287 287 282 275 272 274 278 282 281 278 285 294 301 305 309 314 317 315 316 320 323 322 322
256 261 266 272 279 285 291 295 298 299 300 298 296 294 294 294 294 295 298 298 296 293 289 288 288 291 293 293 292 293 295 297 297 295 293 291 291 290 285 279 278 278 275 269 267 270 277 282 282 284 292 298 304 307 306 312 318 314 314 318 320 320 324
258 264 269 276 283 289 293 296 297 297 297 297 296 296 294 293 291 292 294 293 290 288 287 287 288 289 290 289 288 289 290 289 287 284 282 282 284 282 276 270 269 269 266 262 262 267 273 277 280 288 295 296 299 303 303 306 310 308 309 315 317 317 323
261 268 276 282 288 292 295 296 294 295 294 294 293 292 289 288 287 288 288 286 286 288 289 288 287 286 286 285 285 286 286 284 282 278 276 278 279 277 272 266 263 262 260 261 264 266 268 271 276 283 287 288 292 295 297 301 304 306 310 317 320 318 322
266 274 281 288 294 296 296 295 294 294 294 291 288 286 285 286 287 286 283 282 284 285 284 284 284 284 286 286 285 285 287 288 288 284 279 277 279 281 280 272 264 262 267 269 266 265 265 264 269 278 281 282 288 292 293 297 301 304 310 316 321 316 316
273 280 287 292 296 296 295 294 294 295 293 289 287 285 285 286 287 285 282 281 281 280 281 284 285 286 287 287 286 284 284 286 287 286 284 283 284 286 288 282 274 273 277 274 266 263 264 263 265 273 279 282 286 290 291 294 297 301 306 307 305 298 303
278 285 290 293 294 293 293 293 294 294 291 288 287 285 286 287 287 284 281 280 281 283 286 287 287 288 287 285 282 278 277 281 286 288 288 287 286 284 283 283 281 280 281 279 270 262 262 265 268 271 278 285 287 288 288 290 295 299 300 298 297 296 300
284 289 291 292 291 291 291 292 292 293 290 288 287 287 287 287 285 285 286 289 290 290 288 286 287 288 288 286 282 278 276 279 282 284 285 287 288 287 284 281 280 280 279 276 269 266 268 273 274 275 281 288 287 283 282 284 288 293 295 294 296 297 300
288 291 291 290 289 289 288 289 290 291 290 289 288 287 286 285 287 291 295 296 293 288 284 285 286 286 286 289 291 288 284 281 279 279 283 285 285 284 283 282 281 281 279 274 269 270 274 278 278 280 286 289 283 276 276 276 278 283 291 296 299 299 301
290 290 289 288 287 287 287 288 290 290 289 289 288 287 286 286 289 292 293 293 291 287 286 288 288 286 285 286 290 291 289 285 281 280 282 283 283 282 281 281 281 280 277 274 274 275 276 279 281 280 284 294 287 268 264 269 275 282 292 299 301 301 301
288 288 287 286 284 286 288 290 291 292 290 288 287 285 283 284 287 288 289 289 287 286 289 291 289 286 284 280 280 285 287 283 280 278 277 277 277 278 278 276 275 276 271 266 266 265 258 251 249 243 239 252 282 277 276 282 285 289 296 300 300 299 299
286 286 284 281 282 286 289 291 293 292 289 287 285 283 281 283 285 285 285 284 282 284 287 289 289 285 279 273 272 279 285 283 283 287 287 281 273 268 269 273 273 273 269 262 256 251 242 237 239 244 248 260 277 286 289 291 292 294 297 294 287 285 294
283 283 279 277 281 287 291 294 295 294 290 286 284 281 279 281 280 277 276 278 281 283 282 284 286 279 268 260 260 274 284 286 296 310 315 307 287 265 260 267 272 268 263 259 254 251 251 253 258 266 271 276 281 285 289 292 294 297 297 291 284 281 290
279 278 276 277 283 289 293 296 297 297 294 288 285 282 280 279 277 274 275 279 279 277 278 282 281 268 249 240 249 269 281 285 299 317 328 333 322 285 266 270 274 269 263 257 252 251 255 261 267 272 277 281 284 287 290 293 296 299 297 291 284 278 271
275 275 276 279 284 289 293 297 299 298 295 291 287 284 280 278 277 275 277 276 270 267 270 271 260 242 233 235 245 264 278 285 300 322 324 327 329 308 284 282 277 268 260 253 250 255 260 264 272 278 282 286 288 290 292 294 297 300 297 288 281 276 267
271 274 278 281 284 288 293 299 301 298 294 292 289 285 282 280 277 274 273 267 258 254 255 251 237 228 231 239 251 271 285 290 303 317 320 327 328 293 275 280 272 259 252 249 253 260 266 273 281 286 289 289 289 289 292 294 296 296 292 283 277 274 271
269 273 278 281 284 289 294 300 304 301 294 292 290 287 284 281 279 276 269 256 246 244 242 238 235 236 245 255 267 281 292 294 294 301 311 319 296 269 265 266 258 250 252 260 266 272 280 287 291 290 289 287 286 288 291 293 292 288 280 274 273 274 275
268 271 275 279 284 290 294 299 304 303 297 293 292 288 285 284 283 280 264 242 235 237 235 233 242 251 259 269 278 282 282 281 285 291 292 281 275 271 264 261 265 269 274 277 281 285 288 291 291 288 285 284 286 289 290 290 287 278 269 266 269 271 276
266 269 272 276 281 288 294 299 303 301 296 293 293 288 284 281 276 263 241 225 221 228 237 249 264 267 265 269 275 279 281 284 287 287 280 276 274 271 269 275 279 280 281 281 283 285 287 289 289 284 282 284 287 289 290 288 284 276 268 265 268 270 270
263 266 269 272 277 285 292 298 300 299 293 288 287 286 283 276 264 247 235 229 230 246 263 272 274 269 268 270 274 278 284 289 290 286 281 280 277 274 275 278 278 278 278 279 281 283 283 285 284 281 281 286 288 287 290 290 289 285 274 263 265 270 270
259 261 264 269 275 283 291 296 298 298 294 285 277 276 276 273 267 258 250 250 257 264 268 271 271 269 268 268 270 276 285 292 293 290 287 286 285 284 283 280 277 277 276 276 278 280 280 280 280 282 285 286 285 289 296 295 293 292 284 268 267 271 272
256 259 263 268 275 283 289 291 294 298 300 295 282 273 271 272 268 261 256 258 264 264 261 263 267 266 261 260 266 276 286 291 293 292 290 290 293 295 293 286 279 276 275 277 277 276 277 278 279 282 285 284 283 292 302 301 294 292 289 283 275 272 272
260 264 268 271 277 280 280 283 290 298 306 305 294 279 272 270 264 258 256 258 258 255 251 250 253 253 252 255 262 270 278 285 289 290 289 288 290 295 296 291 281 276 277 279 277 275 276 277 276 277 279 283 288 292 295 295 289 285 289 289 276 268 274
264 268 270 273 277 279 278 281 289 297 301 298 287 273 268 267 263 258 255 254 251 245 242 242 244 244 245 247 253 262 272 282 287 287 287 285 283 287 292 291 284 279 279 278 276 275 274 272 273 274 274 281 288 288 285 285 283 280 284 285 274 269 276
259 262 266 270 276 282 284 287 292 296 295 289 278 268 266 266 263 258 252 247 242 235 233 236 239 240 241 242 247 257 268 276 281 285 287 284 279 279 284 286 285 281 278 276 272 268 267 268 269 270 273 280 284 283 281 282 280 278 279 277 273 278 286
253 260 266 270 274 280 283 286 289 289 286 280 271 266 267 268 265 258 249 242 235 229 230 233 235 238 241 240 243 254 266 271 276 282 284 279 275 275 279 282 283 279 274 272 266 260 261 263 265 269 274 276 274 272 277 282 279 274 276 276 277 288 303
256 262 267 270 274 278 277 278 281 280 279 280 277 268 265 268 265 254 243 233 225 223 229 235 237 240 241 241 245 256 264 267 271 278 280 276 274 276 279 280 277 272 268 264 258 256 259 263 266 271 273 270 267 268 274 284 286 281 275 274 277 288 307
260 263 267 271 276 279 276 275 279 279 278 286 291 282 270 267 257 241 232 228 224 225 231 237 238 240 239 241 247 255 260 265 270 274 276 275 274 276 276 272 266 264 265 259 252 253 261 266 269 268 264 264 270 272 275 286 295 291 279 275 281 293 307
267 270 272 277 282 286 282 276 277 278 278 281 287 289 287 269 233 215 219 227 227 230 236 239 240 240 239 241 248 254 259 266 270 271 273 275 275 274 269 262 259 262 263 256 251 254 261 267 268 265 262 264 266 267 273 286 296 302 294 288 297 305 307
273 276 279 282 286 289 285 276 274 278 281 279 276 277 279 266 238 221 223 230 235 238 241 241 242 241 241 244 249 254 259 266 270 271 273 274 273 271 266 259 257 261 260 253 250 254 259 264 266 263 258 257 260 263 272 280 284 302 324 311 313 314 308
Height
825 824 824 823 823 823 823 823 823 822 822 821 821 821 820 820 819 818 817 816 816 815 815 814 813 812 811 810 809 808 807 806 806 805 805 804 804 804 804 803 803 801 796 794 795 795 794 793 792 790 789 787 785 784 783 782 781 779 777 775 773 770 768
822 822 821 821 821 821 820 820 820 820 819 819 818 818 818 818 817 816 815 815 814 814 813 813 812 811 810 809 808 807 806 805 805 804 803 803 802 801 801 801 801 800 796 792 791 792 791 790 790 788 787 785 784 783 781 780 779 777 776 774 772 768 766
820 819 819 819 818 818 818 818 818 817 817 817 816 816 816 815 815 814 813 813 812 812 811 811 810 809 809 808 806 806 805 804 803 803 802 801 801 800 799 799 799 798 796 792 789 789 789 788 787 786 784 784 782 781 780 778 777 775 774 772 770 767 764
818 817 817 816 816 816 815 815 815 815 815 814 814 814 813 813 813 812 811 810 810 810 809 809 808 807 807 806 805 804 803 802 801 801 800 799 799 798 797 797 797 796 795 792 788 787 787 786 785 784 783 782 780 779 778 777 775 773 772 770 769 766 762
815 815 814 814 813 813 813 813 813 812 812 812 812 811 811 810 810 809 808 808 807 807 807 806 805 805 804 803 802 801 801 800 799 798 798 797 796 795 794 793 793 793 792 791 788 785 784 784 783 782 781 780 779 777 775 775 773 771 770 768 766 764 761
812 812 812 812 811 811 810 810 810 810 809 809 809 809 808 808 807 806 805 805 804 804 803 802 802 801 801 800 799 798 797 797 796 795 794 793 792 792 791 790 790 790 790 789 787 785 782 781 780 780 779 778 777 775 773 772 770 769 768 766 763 760 758
810 810 809 809 809 808 808 807 807 807 807 806 806 805 805 804 804 803 802 801 801 800 800 799 799 798 798 797 796 795 794 793 792 791 790 790 789 789 788 788 788 788 787 786 785 783 781 779 778 778 777 776 776 774 773 771 769 766 765 764 762 759 756
807 807 807 807 806 806 805 805 805 804 804 803 803 802 802 801 801 800 799 798 797 797 796 796 795 795 794 794 793 792 791 790 789 788 787 787 787 786 786 785 785 785 784 784 782 781 780 778 777 777 776 775 774 773 772 771 769 766 763 762 760 758 756
805 804 804 804 803 803 803 802 802 802 801 800 800 799 799 798 797 796 796 795 794 793 793 793 792 792 792 791 790 789 789 788 787 786 785 784 785 784 783 782 782 782 781 780 779 778 778 777 775 775 774 773 773 772 770 770 769 766 763 761 758 756 756
802 802 801 801 801 800 800 800 799 799 798 798 797 796 796 795 794 794 793 792 791 791 791 790 790 789 788 788 787 786 786 785 784 784 783 783 782 782 781 780 779 778 778 777 776 776 775 774 773 773 773 772 771 771 769 768 767 765 763 761 757 753 753
799 799 799 798 798 797 797 797 796 796 795 795 795 794 793 792 792 791 790 789 789 788 787 786 786 785 785 785 784 783 783 782 781 780 780 780 780 779 778 777 776 775 775 774 774 773 773 772 771 771 771 770 769 769 768 767 766 765 763 761 759 754 751
797 796 796 795 795 794 794 793 793 793 793 792 792 792 791 790 789 788 787 786 786 785 784 783 783 783 782 782 781 781 780 779 778 778 777 777 777 776 775 774 773 773 772 772 771 770 770 770 769 769 769 769 768 767 766 765 765 764 762 761 760 757 753
794 793 793 793 792 791 791 791 790 790 790 790 789 789 788 787 786 785 784 783 783 782 782 781 781 780 780 779 779 778 777 776 776 775 775 774 774 773 773 772 771 771 770 770 769 768 768 768 767 767 767 767 766 765 764 764 763 763 762 760 759 757 753
791 791 790 790 789 789 788 788 788 788 788 787 786 786 785 784 783 782 781 781 780 780 779 779 778 777 776 776 776 775 774 774 773 773 772 771 771 770 770 769 769 768 768 768 767 766 766 766 766 765 765 765 764 763 762 762 762 761 760 758 757 755 752
788 788 787 787 787 786 785 785 785 785 785 784 783 783 782 781 780 779 778 778 778 777 776 776 775 774 774 773 772 772 771 771 770 770 769 768 768 767 767 767 766 766 766 765 765 765 764 764 764 764 763 763 762 761 761 761 760 759 758 756 754 752 750
785 785 784 784 784 783 782 782 782 783 782 781 781 780 779 778 777 776 776 775 775 774 773 773 772 771 771 770 770 769 769 769 768 767 767 766 765 765 764 764 764 764 764 763 763 763 762 762 762 762 762 761 759 759 759 759 758 758 757 755 752 749 748
783 782 782 782 781 781 780 779 779 780 779 779 778 777 777 776 775 774 773 772 772 771 770 770 769 768 768 768 768 767 767 766 766 765 764 763 763 762 761 761 761 762 762 762 762 761 760 760 760 760 760 759 758 757 757 757 756 755 755 754 751 748 745
780 780 780 779 779 779 778 777 776 777 776 776 775 775 774 773 772 771 770 770 769 768 768 767 766 766 766 766 766 766 765 764 764 763 762 761 760 759 758 758 758 759 759 759 759 759 758 758 758 758 758 758 757 755 755 755 754 753 753 752 751 748 745
777 777 777 777 777 776 776 774 774 774 773 772 772 772 771 770 769 768 767 767 766 766 765 765 764 764 764 764 764 764 763 763 762 761 759 758 757 756 755 755 756 756 756 756 756 756 756 756 756 756 756 755 755 754 753 753 752 751 751 750 749 748 746
775 774 774 774 774 774 773 772 771 770 770 770 769 768 768 767 766 765 765 765 764 763 763 762 761 761 762 762 762 762 762 761 760 759 757 757 756 754 753 753 754 754 754 754 754 754 754 754 754 754 754 753 753 752 751 750 750 749 749 748 746 746 745
772 772 771 771 771 771 770 770 769 768 767 767 766 766 765 764 764 763 762 762 761 761 761 760 760 760 760 760 760 760 760 760 759 757 756 755 755 753 752 753 752 752 752 752 752 752 752 752 752 752 752 751 750 749 748 748 747 746 746 745 744 743 742
769 769 768 768 768 768 767 767 766 765 764 764 763 763 762 761 761 760 759 759 759 759 759 758 758 758 758 759 759 759 759 758 757 756 755 755 754 752 752 752 751 751 751 751 751 751 751 751 750 750 749 749 748 747 746 745 745 744 743 742 741 741 740
766 766 765 765 765 765 764 764 763 762 762 761 761 760 759 759 758 757 756 756 756 757 757 757 757 757 757 758 758 758 757 756 755 755 755 754 753 752 751 751 751 751 750 750 750 750 749 749 748 748 747 746 745 745 744 743 743 742 741 740 739 739 738
763 763 763 762 761 761 761 761 760 760 759 758 758 757 757 756 755 754 753 754 754 755 756 756 756 756 756 756 756 756 755 754 754 754 753 753 752 751 751 750 750 750 749 749 748 748 747 747 746 745 745 744 743 743 742 741 741 740 739 739 738 737 736
760 760 760 759 758 758 757 758 757 757 756 756 755 755 755 754 754 752 752 753 753 754 754 755 755 755 755 754 754 754 753 752 752 752 751 750 750 750 750 749 749 749 748 747 747 746 745 745 744 743 743 742 742 741 740 739 739 738 737 737 736 735 735
757 758 757 756 756 755 754 754 754 753 753 753 753 752 752 752 752 751 751 752 752 753 753 753 753 753 753 752 752 751 751 750 750 750 749 749 748 748 748 747 747 747 746 745 745 744 743 742 742 742 741 741 740 739 739 738 737 736 735 735 734 734 733
755 755 754 754 753 752 752 751 751 751 750 750 750 750 750 750 750 750 750 750 751 751 751 751 751 751 750 750 750 750 749 749 748 748 747 747 747 746 746 745 745 744 744 743 742 742 741 741 740 740 739 739 739 738 737 737 736 734 734 734 733 732 731
751 751 752 751 751 750 750 749 748 748 747 747 747 747 747 747 747 748 748 748 748 749 749 749 749 749 748 748 748 748 748 747 747 747 746 745 745 745 744 743 743 742 742 741 741 740 740 739 739 739 738 738 737 737 736 736 735 734 733 732 732 731 730
748 748 749 749 748 748 747 746 745 745 745 745 744 744 744 745 745 745 745 745 746 746 746 746 747 747 747 747 746 746 746 746 745 745 744 744 744 743 743 742 741 741 740 740 739 739 738 738 738 738 737 737 736 736 736 735 734 733 732 732 731 730 729
745 745 746 746 745 745 744 743 742 743 743 742 742 743 742 742 742 742 743 743 743 744 744 744 744 744 744 744 744 744 744 744 744 743 743 742 742 742 741 741 740 739 739 738 738 738 737 737 737 737 737 736 736 735 735 734 733 732 731 731 730 729 729
743 743 744 743 742 742 741 740 740 740 740 740 740 740 740 740 740 739 739 740 740 741 741 741 741 741 742 742 742 742 742 742 742 742 741 741 741 740 740 739 738 738 738 737 737 737 737 737 737 736 736 735 735 734 734 733 733 732 731 730 730 729 728
741 741 741 741 740 740 739 738 738 738 738 737 737 737 737 737 736 736 736 736 736 737 738 738 739 739 739 740 740 740 741 740 740 740 740 739 739 738 738 738 737 737 736 736 736 736 736 736 736 735 735 735 734 734 733 732 732 731 730 730 729 728 728
737 738 738 738 738 737 737 736 736 736 735 735 734 734 733 733 732 732 732 733 733 734 735 736 737 737 737 738 738 738 739 739 738 738 738 738 737 737 737 737 736 736 735 735 735 735 735 735 735 735 734 734 733 733 733 732 731 731 730 729 729 728 727
734 734 735 735 734 734 734 733 733 733 732 732 731 730 730 730 729 729 730 730 731 732 732 733 734 734 735 736 736 736 737 737 736 736 736 736 736 735 735 736 735 734 734 734 734 734 734 734 734 734 734 733 733 732 732 731 731 730 729 729 728 728 727
730 731 731 731 731 730 730 730 730 730 730 729 729 729 728 728 728 728 728 728 729 729 730 731 731 732 733 733 734 734 735 734 734 735 734 734 734 734 734 734 734 733 733 733 733 733 733 733 733 733 733 733 732 732 731 731 730 729 729 728 728 727 727
726 727 728 728 727 727 727 727 727 727 727 726 727 727 727 727 726 726 726 726 727 727 728 728 729 729 730 731 731 732 732 732 732 733 732 732 732 732 732 732 732 732 732 732 732 732 732 732 732 732 732 732 732 731 731 730 730 729 729 728 728 727 726